owner,sensor,date,latitude,longitude,vertical_datum,direction_of_sea_water_velocity,sea_water_speed,upward_sea_water_velocity,qcFlag 
TABS,ioos:station:wmo:42044:1,2009-05-01T00:00:00Z,26.1914,-97.0507,2.0,9.675888339,13.6846666,-99999.0,'11111222,11111222,99999999' 
TABS,ioos:station:wmo:42044:1,2009-05-01T00:30:00Z,26.1914,-97.0507,2.0,17.55201624,13.13133657,-99999.0,'11111222,11111222,99999999' 
TABS,ioos:station:wmo:42044:1,2009-05-01T01:00:00Z,26.1914,-97.0507,2.0,26.63884426,13.91729859,-99999.0,'11111222,11111222,99999999' 
TABS,ioos:station:wmo:42044:1,2009-05-01T01:30:00Z,26.1914,-97.0507,2.0,52.0531368,11.17197386,-99999.0,'11111222,11111222,99999999' 
TABS,ioos:station:wmo:42044:1,2009-05-01T02:00:00Z,26.1914,-97.0507,2.0,59.43124249,12.93816061,-99999.0,'11111222,11111222,99999999' 
TABS,ioos:station:wmo:42044:1,2009-05-01T02:30:00Z,26.1914,-97.0507,2.0,75.20782101,13.78692497,-99999.0,'11111222,11111222,99999999' 
TABS,ioos:station:wmo:42044:1,2009-05-01T03:00:00Z,26.1914,-97.0507,2.0,60.26858918,10.60621044,-99999.0,'11111222,11111222,99999999' 
TABS,ioos:station:wmo:42044:1,2009-05-01T03:30:00Z,26.1914,-97.0507,2.0,75.52048183,11.59840075,-99999.0,'11111222,11111222,99999999' 
TABS,ioos:station:wmo:42044:1,2009-05-01T04:00:00Z,26.1914,-97.0507,2.0,87.98603793,9.105624635,-99999.0,'11133222,11111222,99999999' 
TABS,ioos:station:wmo:42044:1,2009-05-01T04:30:00Z,26.1914,-97.0507,2.0,85.46621946,6.831376142,-99999.0,'11133222,11111222,99999999' 
TABS,ioos:station:wmo:42044:1,2009-05-01T05:00:00Z,26.1914,-97.0507,2.0,87.90819654,10.1367549,-99999.0,'11111222,11111222,99999999' 
TABS,ioos:station:wmo:42044:1,2009-05-01T05:30:00Z,26.1914,-97.0507,2.0,67.58736294,11.48776741,-99999.0,'11111222,11111222,99999999' 
TABS,ioos:station:wmo:42044:1,2009-05-01T06:00:00Z,26.1914,-97.0507,2.0,61.45182169,11.75981718,-99999.0,'11111222,11111222,99999999' 
TABS,ioos:station:wmo:42044:1,2009-05-01T06:30:00Z,26.1914,-97.0507,2.0,53.50660683,11.56824965,-99999.0,'11111222,11111222,99999999' 
TABS,ioos:station:wmo:42044:1,2009-05-01T07:00:00Z,26.1914,-97.0507,2.0,50.50828072,10.75525918,-99999.0,'11111222,11111222,99999999' 
TABS,ioos:station:wmo:42044:1,2009-05-01T07:30:00Z,26.1914,-97.0507,2.0,55.90510177,14.12856681,-99999.0,'11111222,11111222,99999999' 
TABS,ioos:station:wmo:42044:1,2009-05-01T08:00:00Z,26.1914,-97.0507,2.0,56.75055004,12.98591545,-99999.0,'11111222,11111222,99999999' 
TABS,ioos:station:wmo:42044:1,2009-05-01T08:30:00Z,26.1914,-97.0507,2.0,60.43483956,10.6806835,-99999.0,'11111222,11111222,99999999' 
TABS,ioos:station:wmo:42044:1,2009-05-01T12:30:00Z,26.1914,-97.0507,2.0,41.61244557,17.94945125,-99999.0,'11111222,11111222,99999999' 
TABS,ioos:station:wmo:42044:1,2009-05-01T13:00:00Z,26.1914,-97.0507,2.0,47.45380397,17.67265968,-99999.0,'11111222,11111222,99999999' 
TABS,ioos:station:wmo:42044:1,2009-05-01T13:30:00Z,26.1914,-97.0507,2.0,39.06658632,18.26341972,-99999.0,'11111222,11111222,99999999' 
TABS,ioos:station:wmo:42044:1,2009-05-01T14:00:00Z,26.1914,-97.0507,2.0,35.5727818,17.13839257,-99999.0,'11111222,11111222,99999999' 
TABS,ioos:station:wmo:42044:1,2009-05-01T14:30:00Z,26.1914,-97.0507,2.0,24.23484439,18.80746926,-99999.0,'11111222,11111222,99999999' 
TABS,ioos:station:wmo:42044:1,2009-05-01T15:00:00Z,26.1914,-97.0507,2.0,27.86213371,18.57306652,-99999.0,'11111222,11111222,99999999' 
TABS,ioos:station:wmo:42044:1,2009-05-01T15:30:00Z,26.1914,-97.0507,2.0,30.59286274,18.2735574,-99999.0,'11111222,11111222,99999999' 
TABS,ioos:station:wmo:42044:1,2009-05-01T16:00:00Z,26.1914,-97.0507,2.0,35.84423168,19.9972048,-99999.0,'11111222,11111222,99999999' 
TABS,ioos:station:wmo:42044:1,2009-05-01T16:30:00Z,26.1914,-97.0507,2.0,40.54703708,22.85905729,-99999.0,'11111222,11111222,99999999' 
TABS,ioos:station:wmo:42044:1,2009-05-01T17:00:00Z,26.1914,-97.0507,2.0,36.36633688,22.7508791,-99999.0,'11111222,11111222,99999999' 
TABS,ioos:station:wmo:42044:1,2009-05-01T17:30:00Z,26.1914,-97.0507,2.0,39.06629887,25.10244012,-99999.0,'11111222,11111222,99999999' 
TABS,ioos:station:wmo:42044:1,2009-05-01T18:00:00Z,26.1914,-97.0507,2.0,40.24918727,26.46601594,-99999.0,'11111222,11111222,99999999' 
TABS,ioos:station:wmo:42044:1,2009-05-01T18:30:00Z,26.1914,-97.0507,2.0,32.72265746,27.10096862,-99999.0,'11111222,11111222,99999999' 
TABS,ioos:station:wmo:42044:1,2009-05-01T19:00:00Z,26.1914,-97.0507,2.0,29.04567999,30.68971978,-99999.0,'11111222,11111222,99999999' 
TABS,ioos:station:wmo:42044:1,2009-05-01T19:30:00Z,26.1914,-97.0507,2.0,30.88703071,30.68112449,-99999.0,'11111222,11111222,99999999' 
TABS,ioos:station:wmo:42044:1,2009-05-01T20:00:00Z,26.1914,-97.0507,2.0,34.2549615,29.54476773,-99999.0,'11111222,11111222,99999999' 
TABS,ioos:station:wmo:42044:1,2009-05-01T20:30:00Z,26.1914,-97.0507,2.0,33.07781567,33.47529537,-99999.0,'11111222,11111222,99999999' 
TABS,ioos:station:wmo:42044:1,2009-05-01T21:00:00Z,26.1914,-97.0507,2.0,32.23068443,29.40032823,-99999.0,'11111222,11111222,99999999' 
TABS,ioos:station:wmo:42044:1,2009-05-01T21:30:00Z,26.1914,-97.0507,2.0,39.5271129,32.91739054,-99999.0,'11111222,11111222,99999999' 
TABS,ioos:station:wmo:42044:1,2009-05-01T22:00:00Z,26.1914,-97.0507,2.0,44.37456969,28.49810169,-99999.0,'11111222,11111222,99999999' 
TABS,ioos:station:wmo:42044:1,2009-05-01T22:30:00Z,26.1914,-97.0507,2.0,41.59749444,28.9504905,-99999.0,'11111222,11111222,99999999' 
TABS,ioos:station:wmo:42044:1,2009-05-01T23:00:00Z,26.1914,-97.0507,2.0,38.21084608,31.88072929,-99999.0,'11111222,11111222,99999999' 
TABS,ioos:station:wmo:42044:1,2009-05-01T23:30:00Z,26.1914,-97.0507,2.0,35.05061987,31.30778338,-99999.0,'11111222,11111222,99999999' 
TABS,ioos:station:wmo:42044:1,2009-05-02T00:00:00Z,26.1914,-97.0507,2.0,34.04041272,31.76272658,-99999.0,'11111222,11111222,99999999' 
TABS,ioos:station:wmo:42044:1,2009-05-02T00:30:00Z,26.1914,-97.0507,2.0,36.06953601,31.06503179,-99999.0,'11111222,11111222,99999999' 
TABS,ioos:station:wmo:42044:1,2009-05-02T01:00:00Z,26.1914,-97.0507,2.0,35.03254317,31.37413266,-99999.0,'11111222,11111222,99999999' 
TABS,ioos:station:wmo:42044:1,2009-05-02T01:30:00Z,26.1914,-97.0507,2.0,38.51456969,29.54817084,-99999.0,'11111222,11111222,99999999' 
TABS,ioos:station:wmo:42044:1,2009-05-02T02:00:00Z,26.1914,-97.0507,2.0,32.52262103,29.12780802,-99999.0,'11111222,11111222,99999999' 
TABS,ioos:station:wmo:42044:1,2009-05-02T02:30:00Z,26.1914,-97.0507,2.0,35.24880352,28.34734732,-99999.0,'11111222,11111222,99999999' 
TABS,ioos:station:wmo:42044:1,2009-05-02T03:00:00Z,26.1914,-97.0507,2.0,31.01971496,24.64435838,-99999.0,'11111222,11111222,99999999' 
TABS,ioos:station:wmo:42044:1,2009-05-02T03:30:00Z,26.1914,-97.0507,2.0,33.44423268,21.3200985,-99999.0,'11111222,11111222,99999999' 
TABS,ioos:station:wmo:42044:1,2009-05-02T04:00:00Z,26.1914,-97.0507,2.0,40.99552149,19.23784811,-99999.0,'11111222,11111222,99999999' 
TABS,ioos:station:wmo:42044:1,2009-05-02T04:30:00Z,26.1914,-97.0507,2.0,43.84296035,22.0591591,-99999.0,'11111222,11111222,99999999' 
TABS,ioos:station:wmo:42044:1,2009-05-02T05:00:00Z,26.1914,-97.0507,2.0,32.43269186,21.6107774,-99999.0,'11111222,11111222,99999999' 
TABS,ioos:station:wmo:42044:1,2009-05-02T05:30:00Z,26.1914,-97.0507,2.0,31.94174229,19.99793239,-99999.0,'11111222,11111222,99999999' 
TABS,ioos:station:wmo:42044:1,2009-05-02T06:00:00Z,26.1914,-97.0507,2.0,31.53604282,19.92226895,-99999.0,'11111222,11111222,99999999' 
TABS,ioos:station:wmo:42044:1,2009-05-02T06:30:00Z,26.1914,-97.0507,2.0,34.02939726,21.55048027,-99999.0,'11111222,11111222,99999999' 
TABS,ioos:station:wmo:42044:1,2009-05-02T07:00:00Z,26.1914,-97.0507,2.0,32.61487323,21.42906904,-99999.0,'11111222,11111222,99999999' 
TABS,ioos:station:wmo:42044:1,2009-05-02T07:30:00Z,26.1914,-97.0507,2.0,31.78305727,23.75155153,-99999.0,'11111222,11111222,99999999' 
TABS,ioos:station:wmo:42044:1,2009-05-02T08:00:00Z,26.1914,-97.0507,2.0,25.17111164,22.24204352,-99999.0,'11111222,11111222,99999999' 
TABS,ioos:station:wmo:42044:1,2009-05-02T08:30:00Z,26.1914,-97.0507,2.0,29.08088037,21.29447346,-99999.0,'11111222,11111222,99999999' 
TABS,ioos:station:wmo:42044:1,2009-05-02T09:00:00Z,26.1914,-97.0507,2.0,19.15028126,22.80179817,-99999.0,'11111222,11111222,99999999' 
TABS,ioos:station:wmo:42044:1,2009-05-02T09:30:00Z,26.1914,-97.0507,2.0,23.27965368,22.31686358,-99999.0,'11111222,11111222,99999999' 
TABS,ioos:station:wmo:42044:1,2009-05-02T10:00:00Z,26.1914,-97.0507,2.0,23.22808773,20.51269363,-99999.0,'11111222,11111222,99999999' 
TABS,ioos:station:wmo:42044:1,2009-05-02T10:30:00Z,26.1914,-97.0507,2.0,15.84240652,17.54646688,-99999.0,'11111222,11111222,99999999' 
TABS,ioos:station:wmo:42044:1,2009-05-02T11:00:00Z,26.1914,-97.0507,2.0,14.17618335,19.88555506,-99999.0,'11111222,11111222,99999999' 
TABS,ioos:station:wmo:42044:1,2009-05-02T11:30:00Z,26.1914,-97.0507,2.0,23.27566391,19.56204999,-99999.0,'11111222,11111222,99999999' 
TABS,ioos:station:wmo:42044:1,2009-05-02T12:00:00Z,26.1914,-97.0507,2.0,17.54134085,20.27266633,-99999.0,'11111222,11111222,99999999' 
TABS,ioos:station:wmo:42044:1,2009-05-02T12:30:00Z,26.1914,-97.0507,2.0,11.18770253,19.27629892,-99999.0,'11111222,11111222,99999999' 
TABS,ioos:station:wmo:42044:1,2009-05-02T13:00:00Z,26.1914,-97.0507,2.0,13.92538317,21.27526498,-99999.0,'11111222,11111222,99999999' 
TABS,ioos:station:wmo:42044:1,2009-05-02T13:30:00Z,26.1914,-97.0507,2.0,10.53471,14.05693067,-99999.0,'11111222,11111222,99999999' 
TABS,ioos:station:wmo:42044:1,2009-05-02T14:00:00Z,26.1914,-97.0507,2.0,10.58117367,19.1150255,-99999.0,'11111222,11111222,99999999' 
TABS,ioos:station:wmo:42044:1,2009-05-02T14:30:00Z,26.1914,-97.0507,2.0,8.924650794,19.78957807,-99999.0,'11111222,11111222,99999999' 
TABS,ioos:station:wmo:42044:1,2009-05-02T15:00:00Z,26.1914,-97.0507,2.0,0.376474961,16.75036119,-99999.0,'11111222,11111222,99999999' 
TABS,ioos:station:wmo:42044:1,2009-05-02T15:30:00Z,26.1914,-97.0507,2.0,10.42675945,17.68197104,-99999.0,'11111222,11111222,99999999' 
TABS,ioos:station:wmo:42044:1,2009-05-02T16:00:00Z,26.1914,-97.0507,2.0,12.41787528,20.69411994,-99999.0,'11111222,11111222,99999999' 
TABS,ioos:station:wmo:42044:1,2009-05-02T16:30:00Z,26.1914,-97.0507,2.0,10.93368674,20.29845807,-99999.0,'11111222,11111222,99999999' 
TABS,ioos:station:wmo:42044:1,2009-05-02T17:00:00Z,26.1914,-97.0507,2.0,17.46187638,19.3622571,-99999.0,'11111222,11111222,99999999' 
TABS,ioos:station:wmo:42044:1,2009-05-02T17:30:00Z,26.1914,-97.0507,2.0,17.01707209,21.59548332,-99999.0,'11111222,11111222,99999999' 
TABS,ioos:station:wmo:42044:1,2009-05-02T18:00:00Z,26.1914,-97.0507,2.0,8.347556854,26.10657005,-99999.0,'11111222,11111222,99999999' 
TABS,ioos:station:wmo:42044:1,2009-05-02T18:30:00Z,26.1914,-97.0507,2.0,7.038134764,26.93293337,-99999.0,'11111222,11111222,99999999' 
TABS,ioos:station:wmo:42044:1,2009-05-02T19:00:00Z,26.1914,-97.0507,2.0,12.3094664,24.06318765,-99999.0,'11111222,11111222,99999999' 
TABS,ioos:station:wmo:42044:1,2009-05-02T19:30:00Z,26.1914,-97.0507,2.0,13.66806696,26.4078246,-99999.0,'11111222,11111222,99999999' 
TABS,ioos:station:wmo:42044:1,2009-05-02T20:00:00Z,26.1914,-97.0507,2.0,6.057790258,22.83751738,-99999.0,'11111222,11111222,99999999' 
TABS,ioos:station:wmo:42044:1,2009-05-02T20:30:00Z,26.1914,-97.0507,2.0,9.3801514,28.59230141,-99999.0,'11111222,11111222,99999999' 
TABS,ioos:station:wmo:42044:1,2009-05-02T21:00:00Z,26.1914,-97.0507,2.0,16.20377343,27.12761324,-99999.0,'11111222,11111222,99999999' 
TABS,ioos:station:wmo:42044:1,2009-05-02T21:30:00Z,26.1914,-97.0507,2.0,10.98662165,24.66199708,-99999.0,'11111222,11111222,99999999' 
TABS,ioos:station:wmo:42044:1,2009-05-02T22:00:00Z,26.1914,-97.0507,2.0,4.440351524,25.44637106,-99999.0,'11111222,11111222,99999999' 
TABS,ioos:station:wmo:42044:1,2009-05-02T22:30:00Z,26.1914,-97.0507,2.0,8.984445003,25.61425384,-99999.0,'11111222,11111222,99999999' 
TABS,ioos:station:wmo:42044:1,2009-05-02T23:00:00Z,26.1914,-97.0507,2.0,11.370811,22.21604825,-99999.0,'11111222,11111222,99999999' 
TABS,ioos:station:wmo:42044:1,2009-05-02T23:30:00Z,26.1914,-97.0507,2.0,7.633785043,22.35814169,-99999.0,'11111222,11111222,99999999' 
TABS,ioos:station:wmo:42044:1,2009-05-03T00:00:00Z,26.1914,-97.0507,2.0,10.66392834,17.56331688,-99999.0,'11111222,11111222,99999999' 
TABS,ioos:station:wmo:42044:1,2009-05-03T00:30:00Z,26.1914,-97.0507,2.0,9.275206103,19.1098404,-99999.0,'11111222,11111222,99999999' 
TABS,ioos:station:wmo:42044:1,2009-05-03T01:00:00Z,26.1914,-97.0507,2.0,10.84859653,22.15595857,-99999.0,'11111222,11111222,99999999' 
TABS,ioos:station:wmo:42044:1,2009-05-03T01:30:00Z,26.1914,-97.0507,2.0,5.985820563,20.52188344,-99999.0,'11111222,11111222,99999999' 
TABS,ioos:station:wmo:42044:1,2009-05-03T02:00:00Z,26.1914,-97.0507,2.0,11.83155206,21.11866,-99999.0,'11111222,11111222,99999999' 
TABS,ioos:station:wmo:42044:1,2009-05-03T02:30:00Z,26.1914,-97.0507,2.0,15.64461238,20.13596285,-99999.0,'11111222,11111222,99999999' 
TABS,ioos:station:wmo:42044:1,2009-05-03T03:00:00Z,26.1914,-97.0507,2.0,9.45195205,17.8422224,-99999.0,'11111222,11111222,99999999' 
TABS,ioos:station:wmo:42044:1,2009-05-03T03:30:00Z,26.1914,-97.0507,2.0,7.803233471,16.35140361,-99999.0,'11111222,11111222,99999999' 
TABS,ioos:station:wmo:42044:1,2009-05-03T04:00:00Z,26.1914,-97.0507,2.0,4.550480956,17.39482682,-99999.0,'11111222,11111222,99999999' 
TABS,ioos:station:wmo:42044:1,2009-05-03T04:30:00Z,26.1914,-97.0507,2.0,4.213438914,19.19186546,-99999.0,'11111222,11111222,99999999' 
TABS,ioos:station:wmo:42044:1,2009-05-03T05:00:00Z,26.1914,-97.0507,2.0,10.44580809,16.38148345,-99999.0,'11111222,11111222,99999999' 
TABS,ioos:station:wmo:42044:1,2009-05-03T05:30:00Z,26.1914,-97.0507,2.0,14.17491169,14.04770444,-99999.0,'11111222,11111222,99999999' 
TABS,ioos:station:wmo:42044:1,2009-05-03T06:00:00Z,26.1914,-97.0507,2.0,7.902815593,13.89192931,-99999.0,'11111222,11111222,99999999' 
TABS,ioos:station:wmo:42044:1,2009-05-03T06:30:00Z,26.1914,-97.0507,2.0,12.71483202,16.72000299,-99999.0,'11111222,11111222,99999999' 
TABS,ioos:station:wmo:42044:1,2009-05-03T07:00:00Z,26.1914,-97.0507,2.0,14.95482225,15.8881245,-99999.0,'11111222,11111222,99999999' 
TABS,ioos:station:wmo:42044:1,2009-05-03T07:30:00Z,26.1914,-97.0507,2.0,15.85867527,14.49155616,-99999.0,'11111222,11111222,99999999' 
TABS,ioos:station:wmo:42044:1,2009-05-03T08:00:00Z,26.1914,-97.0507,2.0,19.48736685,15.49777403,-99999.0,'11111222,11111222,99999999' 
TABS,ioos:station:wmo:42044:1,2009-05-03T08:30:00Z,26.1914,-97.0507,2.0,16.45703507,15.84929336,-99999.0,'11111222,11111222,99999999' 
TABS,ioos:station:wmo:42044:1,2009-05-03T09:00:00Z,26.1914,-97.0507,2.0,20.21264734,16.00566462,-99999.0,'11111222,11111222,99999999' 
TABS,ioos:station:wmo:42044:1,2009-05-03T09:30:00Z,26.1914,-97.0507,2.0,17.57882278,13.54238531,-99999.0,'11111222,11111222,99999999' 
TABS,ioos:station:wmo:42044:1,2009-05-03T10:00:00Z,26.1914,-97.0507,2.0,358.4879272,15.53541116,-99999.0,'11111222,11111222,99999999' 
TABS,ioos:station:wmo:42044:1,2009-05-03T10:30:00Z,26.1914,-97.0507,2.0,346.6180108,15.51116372,-99999.0,'11111222,11111222,99999999' 
TABS,ioos:station:wmo:42044:1,2009-05-03T11:00:00Z,26.1914,-97.0507,2.0,4.235187423,15.03104121,-99999.0,'11111222,11111222,99999999' 
TABS,ioos:station:wmo:42044:1,2009-05-03T11:30:00Z,26.1914,-97.0507,2.0,356.5924549,15.47736735,-99999.0,'11111222,11111222,99999999' 
TABS,ioos:station:wmo:42044:1,2009-05-03T12:00:00Z,26.1914,-97.0507,2.0,1.322884462,12.56334748,-99999.0,'11111222,11111222,99999999' 
TABS,ioos:station:wmo:42044:1,2009-05-03T12:30:00Z,26.1914,-97.0507,2.0,341.0778032,14.12324325,-99999.0,'11111222,11111222,99999999' 
TABS,ioos:station:wmo:42044:1,2009-05-03T13:00:00Z,26.1914,-97.0507,2.0,344.4333175,12.89294381,-99999.0,'11111222,11111222,99999999' 
TABS,ioos:station:wmo:42044:1,2009-05-03T13:30:00Z,26.1914,-97.0507,2.0,349.1361759,13.10487695,-99999.0,'11111222,11111222,99999999' 
TABS,ioos:station:wmo:42044:1,2009-05-03T14:00:00Z,26.1914,-97.0507,2.0,352.5104281,14.80632635,-99999.0,'11111222,11111222,99999999' 
TABS,ioos:station:wmo:42044:1,2009-05-03T14:30:00Z,26.1914,-97.0507,2.0,346.4946423,18.06967902,-99999.0,'11111222,11111222,99999999' 
TABS,ioos:station:wmo:42044:1,2009-05-03T15:00:00Z,26.1914,-97.0507,2.0,357.3976543,18.71930821,-99999.0,'11111222,11111222,99999999' 
TABS,ioos:station:wmo:42044:1,2009-05-03T15:30:00Z,26.1914,-97.0507,2.0,357.1608844,17.36131331,-99999.0,'11111222,11111222,99999999' 
TABS,ioos:station:wmo:42044:1,2009-05-03T16:00:00Z,26.1914,-97.0507,2.0,1.820523668,13.53683124,-99999.0,'11111222,11111222,99999999' 
TABS,ioos:station:wmo:42044:1,2009-05-03T16:30:00Z,26.1914,-97.0507,2.0,359.2745044,15.00120329,-99999.0,'11111222,11144222,99999999' 
TABS,ioos:station:wmo:42044:1,2009-05-03T17:00:00Z,26.1914,-97.0507,2.0,4.734831689,21.32276014,-99999.0,'11111222,11111222,99999999' 
TABS,ioos:station:wmo:42044:1,2009-05-03T17:30:00Z,26.1914,-97.0507,2.0,11.06269698,25.43257753,-99999.0,'11111222,11111222,99999999' 
TABS,ioos:station:wmo:42044:1,2009-05-03T18:00:00Z,26.1914,-97.0507,2.0,17.80473857,20.40741287,-99999.0,'11111222,11111222,99999999' 
TABS,ioos:station:wmo:42044:1,2009-05-03T18:30:00Z,26.1914,-97.0507,2.0,23.70078003,25.32604391,-99999.0,'11111222,11111222,99999999' 
TABS,ioos:station:wmo:42044:1,2009-05-03T19:00:00Z,26.1914,-97.0507,2.0,15.22530101,20.10568079,-99999.0,'11111222,11111222,99999999' 
TABS,ioos:station:wmo:42044:1,2009-05-03T19:30:00Z,26.1914,-97.0507,2.0,9.292494286,20.49899998,-99999.0,'11111222,11111222,99999999' 
TABS,ioos:station:wmo:42044:1,2009-05-03T20:00:00Z,26.1914,-97.0507,2.0,5.026890895,19.17374246,-99999.0,'11111222,11111222,99999999' 
TABS,ioos:station:wmo:42044:1,2009-05-03T20:30:00Z,26.1914,-97.0507,2.0,8.807381579,19.98564735,-99999.0,'11111222,11111222,99999999' 
TABS,ioos:station:wmo:42044:1,2009-05-03T21:00:00Z,26.1914,-97.0507,2.0,16.79000157,21.80973177,-99999.0,'11111222,11111222,99999999' 
TABS,ioos:station:wmo:42044:1,2009-05-03T21:30:00Z,26.1914,-97.0507,2.0,15.68682129,20.37902108,-99999.0,'11111222,11111222,99999999' 
TABS,ioos:station:wmo:42044:1,2009-05-03T22:00:00Z,26.1914,-97.0507,2.0,12.5154542,18.36641772,-99999.0,'11111222,11111222,99999999' 
TABS,ioos:station:wmo:42044:1,2009-05-03T22:30:00Z,26.1914,-97.0507,2.0,8.419102286,18.23651557,-99999.0,'11111222,11111222,99999999' 
TABS,ioos:station:wmo:42044:1,2009-05-03T23:00:00Z,26.1914,-97.0507,2.0,6.946507539,16.7025986,-99999.0,'11111222,11111222,99999999' 
TABS,ioos:station:wmo:42044:1,2009-05-03T23:30:00Z,26.1914,-97.0507,2.0,9.242556427,17.55794122,-99999.0,'11111222,11111222,99999999' 
TABS,ioos:station:wmo:42044:1,2009-05-04T00:00:00Z,26.1914,-97.0507,2.0,14.40856621,17.92376077,-99999.0,'11111222,11111222,99999999' 
TABS,ioos:station:wmo:42044:1,2009-05-04T00:30:00Z,26.1914,-97.0507,2.0,0.934646004,17.78236486,-99999.0,'11111222,11111222,99999999' 
TABS,ioos:station:wmo:42044:1,2009-05-04T01:00:00Z,26.1914,-97.0507,2.0,3.96485591,14.17391971,-99999.0,'11111222,11111222,99999999' 
TABS,ioos:station:wmo:42044:1,2009-05-04T01:30:00Z,26.1914,-97.0507,2.0,353.0811144,13.11551753,-99999.0,'11111222,11111222,99999999' 
TABS,ioos:station:wmo:42044:1,2009-05-04T02:00:00Z,26.1914,-97.0507,2.0,352.277523,10.93921844,-99999.0,'11111222,11111222,99999999' 
TABS,ioos:station:wmo:42044:1,2009-05-04T02:30:00Z,26.1914,-97.0507,2.0,349.3171464,11.65195692,-99999.0,'11111222,11111222,99999999' 
TABS,ioos:station:wmo:42044:1,2009-05-04T03:00:00Z,26.1914,-97.0507,2.0,356.3262139,10.61180946,-99999.0,'11111222,11111222,99999999' 
TABS,ioos:station:wmo:42044:1,2009-05-04T03:30:00Z,26.1914,-97.0507,2.0,353.7845891,12.19166929,-99999.0,'11111222,11111222,99999999' 
TABS,ioos:station:wmo:42044:1,2009-05-04T04:00:00Z,26.1914,-97.0507,2.0,353.6488342,11.29935396,-99999.0,'11111222,11111222,99999999' 
TABS,ioos:station:wmo:42044:1,2009-05-04T04:30:00Z,26.1914,-97.0507,2.0,0.980365399,11.69171074,-99999.0,'11111222,11111222,99999999' 
TABS,ioos:station:wmo:42044:1,2009-05-04T05:00:00Z,26.1914,-97.0507,2.0,2.604673379,13.64409396,-99999.0,'11111222,11111222,99999999' 
TABS,ioos:station:wmo:42044:1,2009-05-04T05:30:00Z,26.1914,-97.0507,2.0,15.26551026,9.837082901,-99999.0,'11133222,11111222,99999999' 
TABS,ioos:station:wmo:42044:1,2009-05-04T06:00:00Z,26.1914,-97.0507,2.0,356.9617765,10.5648521,-99999.0,'11111222,11111222,99999999' 
TABS,ioos:station:wmo:42044:1,2009-05-04T06:30:00Z,26.1914,-97.0507,2.0,2.699956529,12.3136672,-99999.0,'11111222,11111222,99999999' 
TABS,ioos:station:wmo:42044:1,2009-05-04T07:00:00Z,26.1914,-97.0507,2.0,1.988843665,10.08607456,-99999.0,'11111222,11111222,99999999' 
TABS,ioos:station:wmo:42044:1,2009-05-04T07:30:00Z,26.1914,-97.0507,2.0,359.9573566,13.37000374,-99999.0,'11111222,11144222,99999999' 
TABS,ioos:station:wmo:42044:1,2009-05-04T08:00:00Z,26.1914,-97.0507,2.0,11.39300677,12.20039753,-99999.0,'11111222,11111222,99999999' 
TABS,ioos:station:wmo:42044:1,2009-05-04T08:30:00Z,26.1914,-97.0507,2.0,14.92628191,13.89896759,-99999.0,'11111222,11111222,99999999' 
TABS,ioos:station:wmo:42044:1,2009-05-04T09:00:00Z,26.1914,-97.0507,2.0,18.30002059,12.07044738,-99999.0,'11111222,11111222,99999999' 
TABS,ioos:station:wmo:42044:1,2009-05-04T09:30:00Z,26.1914,-97.0507,2.0,14.41060068,12.25558648,-99999.0,'11111222,11111222,99999999' 
TABS,ioos:station:wmo:42044:1,2009-05-04T10:00:00Z,26.1914,-97.0507,2.0,11.94341044,11.35581789,-99999.0,'11111222,11111222,99999999' 
TABS,ioos:station:wmo:42044:1,2009-05-04T10:30:00Z,26.1914,-97.0507,2.0,17.43504438,11.4143988,-99999.0,'11111222,11111222,99999999' 
TABS,ioos:station:wmo:42044:1,2009-05-04T11:00:00Z,26.1914,-97.0507,2.0,38.31771404,8.628754255,-99999.0,'11133222,11111222,99999999' 
TABS,ioos:station:wmo:42044:1,2009-05-04T11:30:00Z,26.1914,-97.0507,2.0,12.18973809,9.708892831,-99999.0,'11133222,11111222,99999999' 
TABS,ioos:station:wmo:42044:1,2009-05-04T12:00:00Z,26.1914,-97.0507,2.0,16.44398838,13.1060673,-99999.0,'11111222,11111222,99999999' 
TABS,ioos:station:wmo:42044:1,2009-05-04T12:30:00Z,26.1914,-97.0507,2.0,13.01862438,9.011620276,-99999.0,'11133222,11111222,99999999' 
TABS,ioos:station:wmo:42044:1,2009-05-04T13:00:00Z,26.1914,-97.0507,2.0,19.13747945,9.028981116,-99999.0,'11133222,11111222,99999999' 
TABS,ioos:station:wmo:42044:1,2009-05-04T13:30:00Z,26.1914,-97.0507,2.0,15.17822407,9.128428123,-99999.0,'11133222,11111222,99999999' 
TABS,ioos:station:wmo:42044:1,2009-05-04T14:00:00Z,26.1914,-97.0507,2.0,3.180033143,7.932212806,-99999.0,'11133222,11111222,99999999' 
TABS,ioos:station:wmo:42044:1,2009-05-04T14:30:00Z,26.1914,-97.0507,2.0,18.03631302,6.81487344,-99999.0,'11133222,11111222,99999999' 
TABS,ioos:station:wmo:42044:1,2009-05-04T15:00:00Z,26.1914,-97.0507,2.0,21.07349806,8.037543157,-99999.0,'11133222,11111222,99999999' 
TABS,ioos:station:wmo:42044:1,2009-05-04T15:30:00Z,26.1914,-97.0507,2.0,13.33437854,9.105470883,-99999.0,'11133222,11111222,99999999' 
TABS,ioos:station:wmo:42044:1,2009-05-04T16:00:00Z,26.1914,-97.0507,2.0,18.78518704,7.763536565,-99999.0,'11133222,11111222,99999999' 
TABS,ioos:station:wmo:42044:1,2009-05-04T16:30:00Z,26.1914,-97.0507,2.0,26.16639636,7.710149155,-99999.0,'11133222,11111222,99999999' 
TABS,ioos:station:wmo:42044:1,2009-05-04T17:00:00Z,26.1914,-97.0507,2.0,29.32799352,8.350239518,-99999.0,'11133222,11111222,99999999' 
TABS,ioos:station:wmo:42044:1,2009-05-04T17:30:00Z,26.1914,-97.0507,2.0,50.04441282,6.353211786,-99999.0,'11133222,11111222,99999999' 
TABS,ioos:station:wmo:42044:1,2009-05-04T18:00:00Z,26.1914,-97.0507,2.0,42.89946922,7.330552503,-99999.0,'11133222,11111222,99999999' 
TABS,ioos:station:wmo:42044:1,2009-05-04T18:30:00Z,26.1914,-97.0507,2.0,38.29415413,6.115889142,-99999.0,'11133222,11111222,99999999' 
TABS,ioos:station:wmo:42044:1,2009-05-04T19:00:00Z,26.1914,-97.0507,2.0,21.66295074,6.907886797,-99999.0,'11133222,11111222,99999999' 
TABS,ioos:station:wmo:42044:1,2009-05-04T19:30:00Z,26.1914,-97.0507,2.0,17.03305512,5.428093588,-99999.0,'11133222,11111222,99999999' 